FW1247 Weather Reports


time (UTC)temp
C
wind
direction
speed
KPH
gust
KPH
rain 1hr
cm
rain 24hr
cm
rain mn
cm
humidity
%
barometer
mb
20260510104528 14 313 1.6 4.8 0.00 0.00 0.00 74 1009.6
20260510103012 13 313 0.0 1.6 0.00 0.00 0.00 76 1009.8
20260510101506 13 313 0.0 1.6 0.00 0.00 0.00 77 1010.0
20260510100003 13 313 0.0 6.4 0.00 0.00 0.00 80 1010.2
20260510094559 12 279 0.0 6.4 0.00 0.00 0.00 79 1010.4
20260510093057 12 284 3.2 9.7 0.00 0.00 0.00 79 1010.5
20260510091555 12 184 0.0 3.2 0.00 0.00 0.00 79 1010.6
20260510090053 12 184 0.0 3.2 0.00 0.00 0.00 80 1010.8
20260510084549 12 151 0.0 3.2 0.00 0.00 0.00 79 1010.9
20260510083047 11 150 1.6 4.8 0.00 0.00 0.00 79 1011.0
20260510081554 11 151 1.6 4.8 0.00 0.00 0.00 78 1011.2
20260510080042 11 142 0.0 4.8 0.00 0.00 0.00 78 1011.1
20260510074540 11 143 1.6 4.8 0.00 0.00 0.00 78 1011.2
20260510073038 11 143 3.2 6.4 0.00 0.00 0.00 77 1011.2
20260510071537 11 119 3.2 6.4 0.00 0.00 0.00 79 1011.2
20260510070040 11 121 3.2 6.4 0.00 0.00 0.00 79 1011.2
20260510064536 11 137 1.6 6.4 0.00 0.00 0.00 80 1011.3
20260510063035 11 142 3.2 6.4 0.00 0.00 0.00 79 1011.3
20260510061532 11 125 1.6 6.4 0.00 0.00 0.00 79 1011.4
20260510060031 11 156 3.2 9.7 0.00 0.00 0.00 78 1011.5
20260510054540 11 236 1.6 16.1 0.00 0.00 0.00 78 1011.5
20260510053027 11 98 4.8 11.3 0.00 0.00 0.00 77 1011.5
20260510051532 11 93 3.2 9.7 0.00 0.00 0.00 77 1011.6
20260510050027 11 88 4.8 11.3 0.00 0.00 0.00 77 1011.7
20260510044519 11 90 6.4 9.7 0.00 0.00 0.00 77 1011.9
20260510043022 10 94 4.8 9.7 0.00 0.00 0.00 76 1012.0
20260510041515 10 115 1.6 4.8 0.00 0.00 0.00 77 1012.2
20260510040013 10 116 0.0 4.8 0.00 0.00 0.00 76 1012.5
20260510034511 10 117 0.0 6.4 0.00 0.00 0.00 76 1012.6
20260510033009 10 194 1.6 4.8 0.00 0.00 0.00 75 1012.6
20260510031508 11 107 1.6 6.4 0.00 0.00 0.00 73 1012.6
20260510030010 11 105 3.2 6.4 0.00 0.00 0.00 73 1012.8
20260510024504 11 100 3.2 6.4 0.00 0.00 0.00 72 1012.8
20260510023005 11 128 3.2 8.0 0.00 0.00 0.00 71 1012.9
20260510021505 11 125 4.8 11.3 0.00 0.00 0.00 70 1013.0
20260510020105 11 132 6.4 12.9 0.00 0.00 0.00 69 1013.2
20260510014615 11 103 6.4 12.9 0.00 0.00 0.00 69 1013.3
20260510013104 11 140 6.4 11.3 0.00 0.00 0.00 71 1013.4
20260510011601 11 113 4.8 9.7 0.00 0.00 0.00 71 1013.6
20260510010053 11 107 4.8 12.9 0.00 0.00 0.00 68 1013.7
20260510004555 11 91 8.0 14.5 0.00 0.00 0.00 67 1014.0
20260510003049 11 106 4.8 11.3 0.00 0.00 0.00 68 1014.3
20260510001547 11 103 4.8 9.7 0.00 0.00 0.00 69 1014.4
20260510000045 11 89 6.4 12.9 0.00 0.00 0.00 68 1014.7
20260509234541 11 74 6.4 11.3 0.00 0.00 0.00 68 1014.9
20260509233036 11 137 8.0 12.9 0.00 0.00 0.00 67 1015.1
20260509231535 11 128 6.4 12.9 0.00 0.00 0.00 69 1015.2
20260509230032 11 105 9.7 16.1 0.00 0.00 0.00 71 1015.3
20260509224531 11 95 4.8 11.3 0.00 0.00 0.00 72 1015.5
20260509223028 11 103 8.0 12.9 0.00 0.00 0.00 72 1015.6
20260509221532 11 101 8.0 12.9 0.00 0.00 0.00 72 1015.7
20260509220024 11 86 8.0 12.9 0.00 0.00 0.00 71 1015.8
20260509214522 11 113 8.0 16.1 0.00 0.00 0.00 71 1015.9
20260509213022 10 115 6.4 12.9 0.00 0.00 0.00 72 1015.9
20260509211521 10 84 3.2 6.4 0.00 0.00 0.00 76 1015.9
20260509210023 10 92 4.8 11.3 0.00 0.00 0.00 77 1016.0
20260509204520 10 69 4.8 8.0 0.00 0.00 0.00 77 1016.0
20260509203024 10 75 4.8 8.0 0.00 0.00 0.00 77 1016.0
20260509201525 10 70 4.8 14.5 0.00 0.00 0.00 77 1016.0
20260509200019 10 80 4.8 11.3 0.00 0.00 0.00 78 1016.1
20260509194518 10 61 4.8 11.3 0.00 0.00 0.00 78 1016.0
20260509193018 10 69 4.8 8.0 0.00 0.00 0.00 78 1016.1
20260509191518 10 74 3.2 9.7 0.00 0.00 0.00 77 1015.9
20260509190017 10 66 4.8 9.7 0.00 0.00 0.00 76 1015.9
20260509184517 10 84 6.4 12.9 0.00 0.00 0.00 74 1015.9
20260509183015 11 65 4.8 12.9 0.00 0.00 0.00 72 1015.9
20260509181615 11 63 4.8 14.5 0.00 0.00 0.00 72 1016.0
20260509180020 11 71 8.0 14.5 0.00 0.00 0.00 71 1015.9
20260509174513 12 71 8.0 16.1 0.00 0.00 0.00 70 1015.9
20260509173120 12 74 9.7 16.1 0.00 0.00 0.00 68 1016.0
20260509171521 12 99 11.3 17.7 0.00 0.00 0.00 66 1016.0
20260509170014 12 107 9.7 20.9 0.00 0.00 0.00 66 1016.1
20260509164508 13 90 9.7 20.9 0.00 0.00 0.00 65 1016.1
20260509163015 13 100 12.9 20.9 0.00 0.00 0.00 62 1016.2
20260509161507 13 71 14.5 22.5 0.00 0.00 0.00 61 1016.3
20260509160006 13 65 11.3 20.9 0.00 0.00 0.00 61 1016.4
20260509154503 14 92 11.3 22.5 0.00 0.00 0.00 60 1016.5
20260509153003 14 93 8.0 19.3 0.00 0.00 0.00 61 1016.7
20260509151701 14 101 14.5 24.1 0.00 0.00 0.00 57 1016.8
20260509150059 15 63 12.9 19.3 0.00 0.00 0.00 55 1016.8
20260509144558 14 76 12.9 22.5 0.00 0.00 0.00 56 1016.9
20260509143105 15 80 11.3 19.3 0.00 0.00 0.00 57 1017.0
20260509141553 15 103 14.5 20.9 0.00 0.00 0.00 54 1017.1
20260509140047 15 63 11.3 22.5 0.00 0.00 0.00 52 1017.3
20260509134543 15 91 9.7 19.3 0.00 0.00 0.00 50 1017.6
20260509133037 15 79 8.0 19.3 0.00 0.00 0.00 49 1017.8
20260509131541 16 53 8.0 19.3 0.00 0.00 0.00 54 1018.1
20260509130055 15 86 11.3 17.7 0.00 0.00 0.00 56 1018.4
20260509124533 14 88 11.3 22.5 0.00 0.00 0.00 58 1018.5
20260509123039 14 65 9.7 22.5 0.00 0.00 0.00 60 1018.7
20260509121524 15 86 9.7 20.9 0.00 0.00 0.00 59 1018.8
20260509120029 14 63 9.7 20.9 0.00 0.00 0.00 62 1018.8
20260509114523 15 89 9.7 20.9 0.00 0.00 0.00 63 1018.9
20260509113020 14 106 12.9 20.9 0.00 0.00 0.00 64 1018.9
20260509111519 14 86 12.9 20.9 0.00 0.00 0.00 64 1019.0
20260509110016 13 51 14.5 20.9 0.00 0.00 0.00 65 1019.1